Regional Weather Roundup
Issued by NWS

Home | Current Version | Previous Version | Text Only | Print | Product List | Glossary On
Versions: 1 2 3 4 5 6 7 8 9 10 11 12 13 14 15 16 17 18 19 20 21 22 23 24 25 26 27 28 29 30 31 32 33 34 35 36 37 38 39 40 41 42 43 44 45 46 47 48 49 50
057
ASUS43 KLOT 191812
RWRIL

ILLINOIS REGIONAL WEATHER ROUNDUP
NATIONAL WEATHER SERVICE CHICAGO/ROMEOVILLE IL
1200 PM CST THU JAN 19 2017

NOTE: "FAIR" INDICATES FEW OR NO CLOUDS BELOW 12,000 FEET WITH NO
SIGNIFICANT WEATHER AND/OR OBSTRUCTIONS TO VISIBILITY.

* THESE STATIONS ARE NOT UNDER NWS QUALITY CONTROL. THEY ALSO MAY NOT
  REPORT WEATHER SUCH AS PRECIPITATION OR FOG.

ILZ001-002-007-009-015-016-024-191900-
NORTHWEST ILLINOIS

CITY           SKY/WX    TMP DP  RH WIND       PRES   REMARKS
MOLINE         CLOUDY    40  36  86 E7        29.88F FOG
6HR MIN TEMP:  25; 6HR MAX TEMP:  40;

STERLING*      CLOUDY    37  36  96 E3        29.91F FOG
SAVANNA*       PTSUNNY   37  37  99 E3        29.90F FOG
$$

ILZ003-004-008-010-011-017-018-191900-
NORTH CENTRAL ILLINOIS

CITY           SKY/WX    TMP DP  RH WIND       PRES   REMARKS
ROCKFORD       CLOUDY    37  35  92 SE8       29.92F FOG     WCI  31
6HR MIN TEMP:  29; 6HR MAX TEMP:  37;

FREEPORT*      FOG       34  34 100 CALM      29.92F VSB<1/4
ROCHELLE*      CLOUDY    36  35  99 SE6       29.91F FOG     WCI  31
DE KALB*       FOG       36  35  99 SE10      29.91F VSB 1/2 WCI  28
$$

ILZ005-006-012>014-019>023-191900-
NORTHEAST ILLINOIS

CITY           SKY/WX    TMP DP  RH WIND       PRES   REMARKS
CHICAGO-OHARE  CLOUDY    39  36  89 S5        29.94F FOG
6HR MIN TEMP:  33; 6HR MAX TEMP:  39;

CHICAGO-MIDWAY CLOUDY    39  35  86 E3        29.95F FOG
6HR MIN TEMP:  33; 6HR MAX TEMP:  39;

AURORA         CLOUDY    39  36  89 E9        29.91F FOG     WCI  33
6HR MIN TEMP:  33; 6HR MAX TEMP:  39;

LANSING*       CLOUDY    39  38  97 SE7       29.97S FOG     WCI  34
JOLIET*        CLOUDY    39  37  93 SE8       29.94F FOG     WCI  34
WAUKEGAN       FOG       36  35  96 SE6       29.94F VSB 3/4 WCI  31
6HR MIN TEMP:  33; 6HR MAX TEMP:  37;

DUPAGE AIRPORT CLOUDY    39  35  86 SE6       29.92F FOG     WCI  35
6HR MIN TEMP:  33; 6HR MAX TEMP:  40;

KANKAKEE*      CLOUDY    40  38  90 E13       29.93F FOG
WHEELING       MOSUNNY   40  35  83 S7        29.96S HAZE
6HR MIN TEMP:  34; 6HR MAX TEMP:  40;

MORRIS*        CLOUDY    38  37  92 SE5       29.93F FOG     WCI  35
ROMEOVILLE*    CLOUDY    39  38  97 SE6       29.93F FOG     WCI  35
NORTHERLY ISL    N/A     35  33  92 E1          N/A
$$

LMZ740>746-191900-
SOUTHERN LAKE MICHIGAN

STATION/POSITION SKY/WX   TEMP    WIND        PRES    VSBY  WAVE
                          AIR SEA DIR/SP/G                  HT/PER
                          (F)     (DEG/KT/KT) (MB)    (MI)  (FT/S)
HARRISON CRIB              36     140/ 10/ 11   N/A
BURNHAM HARBOR             35     150/  3/  6   N/A
CALUMET HARBOR             36      80/  2/  3 1014.1F
BURNS HARBOR               39     110/  7/ 10 1015.2F
$$

ILZ025>027-034>036-040-047-049-050-058-095>099-191900-
WEST-CENTRAL ILLINOIS

CITY           SKY/WX    TMP DP  RH WIND       PRES   REMARKS
QUINCY         HVY RAIN  44  43  96 SE10      29.81F VSB 1
GALESBURG*     CLOUDY    40  38  92 SE5       29.86F
MACOMB*        CLOUDY    39  39  98 SE8       29.88F FOG     WCI  34
JACKSONVILLE*  LGT RAIN  44  42  93 SE9       29.86F
PITTSFIELD*    CLOUDY    45  44  97 SE7       29.85F FOG
$$

ILZ028>032-037-038-041>044-048-051>054-059>061-191900-
CENTRAL ILLINOIS

CITY           SKY/WX    TMP DP  RH WIND       PRES   REMARKS
PONTIAC        PTSUNNY   38  38 100 SE10      29.92F FOG     WCI  32
BLOOMINGTON    CLOUDY    42  38  85 SE14      29.90F
DECATUR        LGT RAIN  43  41  93 SE15      29.89F
PEORIA         CLOUDY    43  38  82 SE6       29.89F
6HR MIN TEMP:  34; 6HR MAX TEMP:  43;

LACON*         CLOUDY    39  37  92 SE6       29.90F FOG     WCI  35
LINCOLN*       RAIN      44  42  91 SE8       29.89F
SPRINGFIELD    LGT RAIN  44  41  89 SE13      29.88F FOG
6HR MIN TEMP:  40; 6HR MAX TEMP:  45; 6HR PCP:  0.01;

TAYLORVILLE    CLOUDY    42  40  93 SE9       29.88F FOG
6HR MIN TEMP:  38; 6HR MAX TEMP:  42;

$$

ILZ033-039-045-046-055>057-062-063-191900-
EAST-CENTRAL ILLINOIS

CITY           SKY/WX    TMP DP  RH WIND       PRES   REMARKS
CHAMPAIGN      CLOUDY    42  39  89 SE15      29.90F
RANTOUL*       CLOUDY    44  40  88 SE10      29.92F
MATTOON        CLOUDY    43  39  86 SE13      29.88F
PARIS*         LGT RAIN  42  39  89 SE7       29.93F
$$

ILZ079-100>102-191900-
SOUTHWEST ILLINOIS

CITY           SKY/WX    TMP DP  RH WIND       PRES   REMARKS
ALTON          CLOUDY    43  43 100 SE6       29.86F FOG
BELLEVILLE     CLOUDY    45  45 100 E5        29.82F
CAHOKIA*       RAIN      46  43  89 CALM      29.84F FOG
SPARTA*        LGT RAIN  45  44  96 SE6       29.84F
$$

ILZ064>066-069>071-074>076-080>082-084>086-088>090-092>094-191900-
SOUTH-CENTRAL ILLINOIS

CITY           SKY/WX    TMP DP  RH WIND       PRES   REMARKS
CARBONDALE     CLOUDY    47  46  97 E5        29.85F FOG
6HR MIN TEMP:  43; 6HR MAX TEMP:  47; 6HR PCP:  0.05;

CAIRO*         CLOUDY    51  51  99 E5        29.83F FOG
EFFINGHAM*     RAIN      44  42  96 E8        29.91F
MARION         LGT RAIN  50  48  93 SE9       29.86F
MT. VERNON     LGT RAIN  45  43  93 E7        29.87F
CENTRALIA*     CLOUDY    46  45  95 E7        29.85F
SALEM*         RAIN      46  43  90 E6        29.87F
METROPOLIS*    LGT RAIN  51  50  97 CALM      29.86F
$$

ILZ067-068-072-073-078-083-087-091-191900-
SOUTHEAST ILLINOIS

CITY           SKY/WX    TMP DP  RH WIND       PRES   REMARKS
LAWRENCEVILLE  LGT RAIN  45  42  89 E10       29.90F FOG
FLORA*         RAIN      45  42  91 E5        29.89F
FAIRFIELD*     CLOUDY    44  43  95 E5        29.88F
HARRISBURG*    LGT RAIN  47  46  96 E7        29.88F
ROBINSON*      CLOUDY    44  40  85 E8        29.94F
CARMI*         LGT RAIN  46  44  92 SE3       29.89F
$$

ABBREVIATIONS USED IN REMARKS
   TC - TEMPERATURE IN CELSIUS
  WCI - WIND CHILL INDEX
   HX - HEAT INDEX
  VSB - VISIBILITY
$$





USA.gov is the U.S. government's official web portal to all federal, state and local government web resources and services.